Theta_e
336 337 338 339 340 341 341 342 342 342 344 346 347 348 349 349 349 350 350 350 350 350 351 352 352 354 352 352 353 354 355 355 355 355 353 353 354 355 353 354 353 354 355 355 356 356 357 359 357 357 359 360 360 361 362 362 362 362 361 361 358 357 357
333 335 337 338 339 341 342 342 342 343 343 347 348 348 349 349 349 349 350 350 350 350 352 352 352 353 354 353 353 354 354 355 356 357 355 354 355 355 356 355 354 353 355 356 355 358 359 359 358 357 359 360 360 361 362 361 361 362 361 362 359 356 356
332 334 335 336 338 340 341 342 342 343 343 347 349 349 349 349 349 350 350 351 350 351 352 353 353 353 354 354 353 354 355 356 356 356 355 354 354 354 356 357 356 355 355 357 358 358 361 360 358 357 358 359 360 360 361 361 361 362 361 362 360 358 356
331 333 334 336 338 340 342 342 343 343 344 346 349 349 349 350 350 351 352 352 351 351 351 353 354 353 354 354 353 354 355 356 356 356 356 356 355 354 353 355 357 357 356 356 360 360 360 360 358 357 361 358 359 359 360 360 360 361 361 361 360 358 358
331 333 334 335 336 337 341 343 343 343 344 346 348 349 350 351 352 353 353 354 353 352 353 354 355 355 355 355 355 355 355 355 356 357 357 357 357 355 353 352 355 358 359 358 359 360 359 359 358 357 357 357 358 358 359 359 360 360 360 361 359 358 358
330 332 333 334 335 336 338 341 343 344 344 345 347 349 351 352 353 353 354 355 354 354 354 355 355 356 354 355 355 355 356 356 356 357 356 356 356 355 353 352 353 356 358 359 360 360 360 359 359 358 357 357 357 358 359 358 360 360 360 361 359 358 358
330 332 333 334 336 337 337 339 342 344 345 346 347 349 351 353 352 353 355 355 355 354 354 354 355 356 356 356 355 355 355 355 355 356 357 356 355 355 354 353 353 354 356 360 359 359 359 359 358 358 357 358 357 357 358 358 358 360 360 360 359 358 358
329 332 332 334 336 337 338 338 340 343 345 346 348 351 351 352 353 353 353 355 356 356 355 355 355 355 356 356 356 355 355 355 356 356 356 356 355 354 354 353 353 353 354 355 360 360 358 357 359 359 357 357 357 357 359 359 359 360 360 359 358 357 358
326 332 332 334 336 337 338 339 339 341 343 344 345 349 352 353 353 353 353 354 356 356 356 356 356 356 356 356 356 355 356 356 356 355 355 355 355 354 354 354 353 354 354 354 357 360 359 357 357 359 358 356 357 357 358 360 360 360 360 359 358 357 357
325 328 333 334 335 337 338 339 340 341 342 343 344 345 349 352 353 353 354 354 355 355 356 357 358 357 356 356 356 357 356 356 356 355 355 354 355 354 354 355 354 354 354 354 355 358 360 358 356 357 359 357 356 356 357 359 360 360 360 359 359 358 356
326 328 333 333 334 335 337 338 339 340 342 343 344 346 349 352 353 353 353 354 355 356 357 358 359 358 357 356 356 356 356 356 356 355 355 354 354 354 355 355 355 355 354 355 355 356 358 359 357 355 358 359 357 356 356 358 360 360 359 359 360 359 358
326 326 332 333 334 334 334 336 339 342 344 346 346 346 349 351 353 353 352 353 356 358 358 359 360 359 357 357 356 356 356 356 356 355 355 354 354 354 355 355 355 355 355 355 355 356 358 358 358 356 354 358 359 358 357 357 359 360 359 359 359 359 359
326 326 331 332 333 334 335 336 337 341 344 346 346 344 347 350 352 353 352 352 355 359 360 361 360 360 358 357 356 356 356 356 356 356 355 355 354 354 354 354 354 355 356 356 356 356 357 358 358 358 356 356 359 360 359 358 358 359 359 358 358 359 358
335 326 329 330 331 333 334 336 337 340 342 343 344 344 345 349 352 353 352 352 354 358 360 362 361 361 360 358 356 356 356 356 356 356 356 355 354 353 353 353 353 354 356 357 355 355 356 358 358 358 358 356 356 359 360 360 359 359 359 359 358 358 358
326 327 330 329 331 332 334 335 337 338 340 341 343 343 344 349 352 354 354 354 355 356 358 361 361 360 360 359 357 356 356 356 356 356 356 356 355 354 354 354 354 354 355 356 356 356 356 357 358 358 358 358 357 357 359 360 360 360 359 358 357 358 358
330 332 332 331 333 334 335 337 339 339 340 341 342 344 347 350 352 354 354 354 355 355 357 359 360 360 359 359 358 357 357 356 356 355 355 356 355 355 354 354 355 354 354 355 356 356 356 356 357 358 357 358 358 357 358 359 361 351 339 343 357 357 358
330 332 332 334 335 335 336 339 341 340 341 343 345 348 350 353 354 354 355 355 355 355 356 357 358 359 359 358 359 358 357 356 355 355 354 355 356 355 354 354 354 354 353 355 357 357 356 356 355 356 357 357 358 358 358 358 358 340 334 335 339 354 357
326 330 334 337 341 342 341 344 348 345 343 345 349 350 350 351 354 354 354 355 356 356 356 356 356 357 358 358 359 359 359 357 356 356 355 354 354 355 355 354 353 353 353 354 356 358 358 357 355 356 357 357 357 358 359 359 343 335 333 333 333 339 357
329 338 341 344 345 347 349 352 353 354 352 351 352 352 351 352 353 353 354 355 356 357 356 355 355 355 357 357 358 359 359 358 357 356 356 355 354 355 355 354 353 352 353 353 355 358 357 357 356 355 356 357 356 356 358 359 342 334 331 331 331 332 343
322 326 338 341 342 343 344 347 350 353 352 352 352 354 353 354 352 353 355 355 355 355 355 355 354 355 355 356 357 359 360 359 358 357 357 357 355 355 355 354 353 353 354 354 354 355 357 357 356 356 355 356 357 357 357 358 343 332 329 328 329 331 336
339 339 338 342 342 342 343 345 347 348 347 349 349 350 350 351 352 353 352 352 353 353 353 353 354 353 355 355 356 358 360 359 358 357 357 357 356 355 354 355 354 353 353 354 354 353 355 356 356 356 356 355 356 357 358 358 339 330 327 325 325 329 332
339 346 348 350 350 350 351 351 350 353 353 352 349 344 346 349 350 350 351 352 351 352 353 352 352 352 356 355 355 357 360 360 359 358 358 358 357 356 355 355 355 354 354 354 354 355 354 355 357 356 356 356 355 355 356 359 335 328 326 324 324 326 341
342 346 346 346 346 346 347 347 348 351 349 346 344 342 343 344 345 349 349 350 349 349 352 353 352 351 354 357 356 357 360 360 359 359 358 359 358 357 356 355 356 356 356 354 354 354 354 354 355 356 357 356 356 355 354 356 340 326 323 322 322 326 346
340 343 345 343 344 345 346 348 349 353 355 353 355 356 356 356 352 352 358 357 347 347 349 351 352 353 353 358 358 358 360 361 360 359 359 359 358 358 358 358 358 358 359 356 354 353 354 355 355 356 356 356 357 357 356 355 344 322 320 320 320 329 348
339 339 341 342 343 345 348 352 354 355 356 353 353 355 355 357 357 357 356 359 359 347 346 348 351 353 353 358 360 359 361 362 362 361 360 359 360 360 360 359 359 359 360 359 358 356 355 355 355 355 356 357 357 348 354 357 347 322 318 317 318 328 349
338 339 339 340 346 348 349 353 352 352 350 351 351 358 359 361 358 356 360 362 358 356 348 347 349 354 355 358 361 360 361 363 362 362 361 361 361 362 362 362 361 361 361 361 360 358 357 356 355 355 355 356 356 357 357 357 358 346 315 315 315 319 346
341 341 340 342 347 352 346 349 351 349 348 351 355 355 355 358 361 360 355 357 355 354 356 352 351 354 357 357 362 361 361 362 363 363 363 363 363 364 364 364 362 362 361 361 361 359 358 357 356 356 356 356 357 356 357 358 358 354 317 312 313 315 325
339 340 342 345 354 348 344 348 349 348 351 351 353 353 353 355 358 361 360 354 354 356 358 362 354 355 357 358 361 361 361 362 363 365 365 365 365 364 364 365 364 363 362 362 361 359 357 356 355 355 355 357 358 358 358 356 345 360 324 313 311 313 314
337 339 340 341 343 346 345 346 347 348 350 351 352 352 354 357 356 358 361 355 360 365 365 366 362 356 357 358 360 361 361 362 363 364 367 366 366 365 364 365 364 363 362 361 360 359 358 357 356 355 354 354 356 358 360 360 356 335 345 315 312 311 312
337 338 339 341 345 345 347 344 350 348 348 350 353 353 354 356 354 363 359 356 362 364 365 363 365 360 358 356 358 361 361 362 364 366 367 367 366 365 364 364 364 363 362 362 360 359 358 358 357 356 355 354 355 358 360 361 361 341 330 330 313 313 312
336 338 340 340 344 345 345 344 348 345 347 348 350 350 354 356 355 356 355 356 361 363 363 363 364 362 359 358 357 362 363 363 365 366 367 368 367 365 364 364 364 362 362 362 361 359 359 358 359 357 356 355 355 355 357 360 360 362 339 323 315 313 312
337 339 340 342 343 344 345 345 345 345 345 347 349 349 352 356 355 351 352 359 360 360 360 362 363 363 361 360 359 361 365 364 365 366 367 367 368 367 366 365 364 362 363 363 361 361 359 359 359 359 358 357 357 356 357 358 358 360 351 330 321 315 311
335 337 338 340 344 346 344 344 344 345 346 345 346 348 352 351 354 355 357 358 359 360 360 361 365 363 363 363 362 362 364 365 364 365 365 367 367 368 368 367 366 363 362 363 363 362 360 360 358 358 357 357 358 358 357 358 357 347 340 341 337 330 327
333 336 339 341 344 345 342 342 342 344 343 343 345 347 350 351 351 352 354 355 357 359 358 363 360 361 361 364 365 364 363 366 376 368 364 366 367 367 366 366 367 365 362 362 363 361 361 359 357 356 356 355 356 356 357 355 332 328 332 331 333 338 335
335 336 338 340 342 344 340 340 342 342 343 342 345 347 347 347 348 353 359 358 357 357 357 359 366 362 358 361 360 361 361 363 365 363 363 363 363 364 363 363 365 363 358 345 349 360 361 361 357 356 358 357 355 355 349 337 331 325 308 316 308 324 333
335 336 338 341 343 342 340 342 341 340 339 341 344 345 345 347 350 353 353 355 356 356 358 356 355 358 357 359 360 358 358 359 359 361 361 361 359 356 344 328 310 330 349 340 323 315 316 325 343 348 344 329 324 332 343 334 326 306 299 301 300 298 301
336 336 337 339 342 342 340 339 342 342 341 341 344 345 347 349 350 348 351 351 352 352 351 350 358 355 354 353 353 353 356 358 358 358 359 361 359 352 344 340 328 303 302 315 316 308 303 303 306 313 321 328 321 314 309 308 301 297 298 297 298 300 300
337 337 338 340 341 343 342 341 341 340 342 343 343 342 342 342 344 346 348 350 349 349 350 350 355 353 351 351 351 351 353 356 355 355 355 355 358 353 345 339 332 328 306 299 304 305 303 303 304 305 307 313 318 319 313 301 297 296 295 296 296 298 298
Wind_Speed
22 20 19 18 18 18 19 19 19 18 18 18 18 18 16 16 17 16 16 17 19 18 17 17 17 16 18 16 16 14 14 13 11 11 11 11 10 10 11 10 10 8 8 9 9 10 9 9 10 9 9 9 9 8 9 8 7 7 6 6 7 7 8
21 19 19 18 18 19 20 19 19 17 16 15 15 18 15 17 16 17 17 19 20 20 18 18 17 16 17 17 15 15 15 15 13 11 10 9 9 8 11 11 11 11 8 8 7 7 9 10 11 9 9 9 9 8 8 8 8 7 7 6 7 7 7
22 20 19 19 18 17 19 18 18 19 19 16 17 17 18 18 18 18 17 17 18 18 16 17 17 17 16 16 16 17 16 15 14 14 13 12 12 12 10 11 11 10 10 7 7 7 8 10 10 10 9 10 10 9 8 8 8 8 7 7 7 7 8
21 20 20 20 20 18 20 20 21 20 19 20 21 22 19 16 15 15 16 18 19 18 19 18 18 17 15 16 17 16 16 16 16 15 15 13 13 12 10 8 9 9 9 10 9 9 8 8 10 10 10 9 10 10 10 10 9 9 9 8 7 7 7
21 20 18 17 17 16 17 17 19 19 20 21 21 19 18 15 16 15 15 17 19 21 21 20 18 17 15 14 13 14 17 17 16 14 14 13 12 11 11 11 10 10 11 10 9 9 10 10 10 10 10 10 10 10 11 10 10 10 9 9 8 8 7
19 19 18 17 17 17 17 18 20 21 20 19 18 17 17 18 17 19 18 18 18 19 18 17 17 16 16 15 14 14 14 15 15 15 15 14 13 12 13 12 12 11 10 12 11 10 10 11 11 11 11 10 11 11 11 11 10 10 10 9 9 9 8
19 21 19 18 19 18 18 18 19 19 18 18 19 18 18 18 20 20 18 19 19 20 20 20 19 17 16 15 16 15 15 16 16 16 14 15 14 14 13 12 12 12 11 9 11 11 10 11 12 12 12 11 11 12 11 11 11 10 10 10 9 9 9
19 20 19 20 19 18 18 17 17 16 16 16 16 17 20 19 18 19 20 19 19 19 19 20 19 18 17 15 16 17 17 17 15 16 14 15 15 15 14 13 12 12 11 11 11 12 13 11 10 11 12 12 12 12 12 12 12 11 10 11 10 10 8
18 20 19 19 19 18 18 18 17 17 18 18 18 18 19 18 19 20 20 19 19 19 20 20 19 18 16 16 16 17 16 15 15 15 15 15 14 15 14 13 13 12 12 13 11 11 12 13 11 10 12 12 11 12 12 12 12 12 11 12 12 12 11
18 17 21 19 19 17 17 16 16 15 17 17 17 16 18 18 17 16 17 18 17 20 20 20 18 18 18 17 17 17 16 15 15 16 16 16 14 15 15 14 13 12 13 13 12 12 11 12 13 10 11 12 12 12 12 12 13 13 12 13 13 13 13
18 16 20 20 17 17 16 15 17 16 17 17 17 17 17 16 16 16 16 16 17 17 19 18 18 18 18 18 19 19 18 17 16 17 17 17 15 16 16 15 14 13 14 13 12 13 11 11 12 12 11 12 13 13 14 13 13 14 14 13 13 14 13
24 18 20 20 19 17 17 16 16 15 16 15 15 16 16 16 16 16 15 16 15 16 17 18 16 18 18 18 19 18 19 18 17 18 19 18 17 17 16 15 14 14 13 14 14 13 13 13 12 12 14 13 13 14 14 14 13 14 15 14 13 13 13
19 17 20 22 20 19 17 16 19 19 19 17 16 14 15 16 16 16 15 16 17 16 16 17 17 18 18 18 19 18 19 18 18 18 18 18 17 15 15 15 15 15 15 14 15 14 13 13 14 12 14 14 14 14 14 14 14 13 14 14 14 14 14
16 15 17 18 18 20 18 18 16 18 17 15 15 15 14 15 16 16 16 17 17 16 16 15 17 17 17 17 18 18 19 19 18 18 17 16 16 15 16 15 15 15 14 14 15 15 14 14 14 13 13 14 14 14 13 14 14 14 13 14 14 14 14
17 13 11 17 18 17 17 17 15 14 14 14 15 16 17 15 16 15 15 15 16 17 17 16 17 17 18 17 18 18 18 16 16 15 15 16 16 16 16 15 15 15 14 13 14 13 15 14 14 14 14 13 14 14 13 13 14 13 13 14 15 14 15
14 14 14 14 15 16 16 17 15 14 14 14 15 15 15 15 15 16 16 15 16 16 16 15 17 17 17 18 18 17 17 16 15 15 15 15 16 16 16 15 15 15 14 14 15 14 14 14 13 14 15 14 14 14 13 13 11 15 21 18 15 15 13
13 15 14 12 12 13 11 13 14 13 14 14 15 15 14 14 15 15 16 15 15 16 16 15 16 18 18 18 17 16 16 15 15 14 16 16 15 15 16 16 14 14 14 14 14 14 14 14 15 14 14 15 15 15 14 13 13 19 19 21 22 16 14
10 10 12 12 9 9 10 10 11 14 15 14 13 13 12 10 13 14 16 15 15 15 15 15 15 17 17 17 16 16 16 15 15 15 16 15 16 15 16 15 14 14 14 14 14 13 13 15 15 15 14 14 15 16 15 14 17 20 20 21 22 19 15
10 11 9 9 9 7 8 9 9 9 11 11 11 12 13 12 12 13 14 14 14 12 14 16 14 14 16 16 16 17 17 15 16 16 15 16 16 15 14 15 14 14 14 15 14 13 14 16 16 15 15 15 16 17 16 15 19 20 21 21 22 22 19
8 6 8 8 6 7 6 6 6 6 8 8 7 7 6 7 8 9 11 12 12 13 13 14 15 12 14 15 16 16 17 17 17 16 16 15 14 14 14 14 15 15 14 13 13 13 14 15 16 15 15 15 16 16 15 16 18 21 22 21 22 23 20
15 13 11 11 12 10 9 9 8 7 6 4 1 2 5 6 6 6 6 7 9 11 11 12 14 12 11 14 14 15 16 16 17 17 16 15 14 14 14 14 13 14 13 12 14 15 15 15 16 15 16 16 15 14 15 15 19 20 22 21 22 23 20
12 15 14 11 11 11 10 9 9 8 5 4 5 4 1 3 5 6 6 7 8 7 9 10 12 13 10 13 14 14 15 16 16 16 15 15 14 15 15 14 14 14 12 11 12 12 12 12 13 14 14 14 14 14 15 14 18 19 20 22 21 22 15
13 13 12 11 11 9 7 7 7 6 4 4 4 4 4 4 1 3 5 8 8 7 7 8 9 12 11 11 13 14 14 15 16 15 15 15 15 15 15 14 14 12 10 12 12 12 12 13 13 12 13 14 14 15 15 13 14 17 19 20 21 17 13
12 11 11 10 8 9 7 7 6 7 7 7 8 7 6 4 2 1 2 2 6 10 9 8 9 8 9 10 12 13 13 14 15 15 15 14 15 15 13 13 11 12 11 12 12 12 12 11 11 11 11 13 14 14 14 13 11 15 17 20 21 19 14
11 10 9 9 7 7 7 7 5 5 8 9 9 9 7 5 5 4 2 1 1 5 10 11 10 9 9 8 10 11 12 13 14 14 15 15 14 13 13 12 12 10 10 11 11 11 9 9 10 10 10 12 12 14 15 12 10 14 16 19 20 18 12
11 11 10 9 8 8 7 8 9 9 8 8 6 7 7 8 7 4 2 4 2 1 6 10 10 10 9 9 10 10 11 12 13 13 13 13 12 11 11 10 9 10 10 10 10 10 10 10 9 11 11 10 11 11 11 11 10 10 16 17 18 20 13
12 11 11 12 9 9 8 8 7 7 6 5 7 7 8 8 8 7 4 3 4 4 4 5 6 8 9 9 10 10 11 10 12 13 12 11 11 11 10 10 10 10 10 10 9 9 10 11 10 10 10 10 10 11 10 10 10 10 17 17 19 21 19
11 12 10 9 7 8 7 6 6 6 6 7 8 8 7 7 8 8 7 4 4 5 5 4 8 9 9 10 10 11 11 11 10 11 11 10 10 10 9 8 9 9 10 9 9 10 10 9 9 9 9 8 8 9 10 11 14 9 14 18 19 21 24
13 11 10 10 10 10 8 4 5 5 5 5 5 6 6 7 8 9 7 2 4 5 4 5 3 7 9 9 10 10 11 10 11 10 8 9 10 10 9 8 9 9 9 9 9 9 10 10 9 10 10 8 7 6 8 8 9 14 11 17 21 22 23
10 11 10 9 8 9 9 9 3 5 5 6 4 5 4 5 6 5 3 4 5 5 5 5 3 5 6 7 8 9 9 10 10 10 9 10 9 9 9 8 8 8 8 9 9 8 9 9 9 9 10 10 8 6 5 6 8 11 16 15 22 23 25
8 8 9 9 6 7 7 7 4 3 4 4 6 9 5 3 4 5 5 4 5 5 6 5 5 2 4 6 6 7 8 8 8 9 9 9 10 9 8 8 7 7 6 8 8 8 8 8 8 9 9 8 8 7 6 4 5 4 10 16 19 23 24
9 9 9 9 5 6 5 7 6 4 3 5 6 6 6 6 3 4 5 4 4 4 5 6 5 3 4 4 6 6 8 8 7 8 9 9 8 9 8 9 8 7 7 7 8 8 8 7 7 7 8 8 8 7 7 6 4 1 5 3 1 2 6
7 8 8 9 4 5 5 5 6 4 4 4 5 6 5 6 6 4 4 5 5 4 4 4 4 3 3 4 4 5 6 8 7 6 7 8 7 7 7 7 7 7 7 7 7 8 8 7 6 6 7 7 6 7 6 7 2 6 5 4 2 2 5
7 7 8 9 5 3 3 4 4 4 4 3 4 5 6 5 5 6 5 4 5 4 4 4 3 3 3 4 5 5 5 6 9 8 7 7 8 7 6 5 6 7 7 7 7 7 7 7 6 6 6 6 6 5 6 3 6 4 4 3 3 3 2
6 6 8 10 7 1 1 1 3 2 3 4 5 5 7 8 6 5 4 4 4 5 4 3 2 3 3 3 4 4 4 5 6 7 7 6 6 6 4 4 7 7 3 5 2 4 6 7 5 3 1 4 3 3 5 6 4 1 2 1 1 2 3
7 6 8 9 9 2 0 1 1 2 4 4 5 6 7 6 7 4 3 6 7 7 3 0 1 3 2 3 3 3 4 4 5 5 7 7 7 7 8 17 20 11 6 4 9 16 14 11 4 4 7 8 5 4 5 6 4 5 3 3 3 3 3
8 8 7 7 8 5 0 1 2 1 2 4 6 8 7 2 2 5 5 6 7 7 6 6 3 4 5 5 5 5 5 4 4 5 4 5 7 9 10 9 13 21 20 13 13 16 18 17 17 16 12 11 7 7 12 11 9 8 5 4 3 4 4
10 8 7 7 5 7 4 1 2 3 5 4 6 7 9 10 10 9 6 6 6 7 7 7 4 5 5 6 5 6 7 7 6 6 7 6 7 10 9 11 12 10 16 17 14 16 18 19 18 17 15 13 11 8 5 6 8 9 8 7 6 5 4
Wind_Direction
169 171 172 172 173 177 178 178 179 180 181 182 185 186 182 180 179 177 181 182 186 186 187 188 189 186 187 189 190 189 190 191 192 193 193 193 191 188 187 187 189 189 186 184 187 189 188 185 190 188 187 189 187 186 192 193 191 194 193 182 182 180 181
171 173 172 171 174 178 179 179 176 178 180 180 180 184 184 184 179 179 181 183 186 187 187 190 192 192 190 190 190 189 190 192 192 194 195 195 193 190 188 187 189 193 190 191 178 178 179 188 188 187 186 187 190 187 186 193 194 192 193 187 178 182 178
172 172 170 173 176 175 178 178 179 181 182 178 178 184 190 186 183 180 177 180 183 186 187 192 196 196 194 192 190 192 191 191 192 195 195 195 195 192 187 186 189 189 194 185 181 180 178 184 190 190 183 187 190 190 187 189 193 192 192 188 182 180 183
171 169 170 172 172 174 175 178 182 184 183 182 183 187 189 183 179 177 178 179 181 184 188 193 196 200 200 195 193 191 192 193 194 195 198 197 196 194 187 183 184 186 188 193 188 187 186 181 188 190 186 185 189 192 191 192 193 193 192 189 190 188 184
169 164 165 167 172 173 174 177 181 184 186 187 186 185 183 179 178 178 179 179 181 186 190 192 194 198 201 201 197 194 194 193 194 196 198 199 197 194 194 191 187 187 190 191 188 185 187 189 190 190 193 188 189 190 193 193 193 193 194 191 195 193 192
166 166 167 169 173 177 178 178 181 183 184 182 181 181 184 181 181 183 182 179 184 187 189 192 195 196 200 201 202 203 199 197 196 195 196 196 194 195 197 196 193 192 187 192 191 189 187 191 193 193 194 192 190 191 193 194 194 192 194 193 198 196 195
167 169 168 170 175 178 181 179 180 183 180 181 181 183 183 183 186 185 181 184 183 184 188 192 195 196 199 198 203 203 201 200 198 199 198 198 197 198 199 198 196 197 197 188 194 192 190 191 195 195 194 191 192 192 192 194 195 193 194 195 198 198 198
168 170 169 173 175 177 181 180 180 177 177 180 179 179 184 187 184 184 186 186 184 185 188 192 194 197 198 198 201 203 202 202 200 201 199 198 197 198 198 199 198 198 196 195 197 193 198 194 194 195 194 193 191 192 192 192 195 194 193 198 198 200 199
166 169 174 175 175 177 179 180 178 177 179 182 182 182 185 186 186 188 187 184 185 185 189 191 193 195 196 199 202 205 205 201 201 200 202 201 201 201 200 199 200 197 196 199 198 196 197 200 196 192 194 196 192 192 192 193 194 195 195 198 198 199 201
164 163 179 178 178 175 176 175 172 173 181 185 186 187 189 192 190 187 188 187 185 187 188 189 192 194 196 198 202 204 204 203 202 201 202 203 202 203 202 199 200 198 199 200 199 197 199 197 199 193 193 196 196 195 195 193 195 196 197 198 198 200 201
168 162 175 177 174 174 170 167 171 176 182 185 185 187 188 188 190 191 189 187 187 187 188 190 191 193 196 197 200 200 202 203 202 201 202 204 203 204 202 201 199 198 200 199 200 199 197 197 196 198 195 197 198 198 199 198 196 197 200 200 199 200 202
172 166 170 168 170 167 168 172 175 175 182 186 183 182 184 186 191 191 187 188 184 185 188 191 190 195 197 198 201 202 202 202 201 202 202 203 203 203 202 201 200 197 199 199 200 200 198 197 196 197 201 201 201 201 201 201 199 200 201 201 199 200 203
171 162 163 163 166 169 171 173 176 179 182 183 181 173 176 185 191 192 186 186 187 185 185 188 192 195 198 199 200 202 202 201 202 202 202 201 202 201 201 202 201 198 198 198 201 199 199 199 198 200 201 204 203 203 202 203 203 202 202 202 200 200 202
176 162 158 161 163 166 167 170 173 176 177 175 177 177 179 185 188 188 186 186 187 186 185 188 191 193 197 197 200 202 204 203 201 201 201 200 198 199 201 201 202 201 198 196 200 201 201 200 199 201 202 205 206 206 204 204 205 205 203 203 202 201 203
157 148 152 161 162 162 164 167 170 170 171 174 175 181 186 188 188 188 188 187 186 189 190 186 188 192 194 196 199 202 203 203 202 201 200 198 197 199 200 200 200 201 199 197 199 202 204 203 200 201 204 206 207 209 208 207 207 206 204 204 206 204 204
133 141 155 159 159 163 168 169 166 169 171 174 181 186 189 188 184 184 186 187 187 190 190 185 189 191 194 197 199 199 200 201 201 199 198 198 198 199 199 199 199 199 200 199 199 200 201 203 202 203 204 205 208 209 210 212 211 209 205 204 204 206 207
124 134 143 149 155 162 163 164 166 170 174 179 184 187 188 183 181 183 186 187 189 190 191 189 189 192 195 197 195 194 196 198 200 198 199 200 199 198 199 201 199 199 199 198 197 198 198 201 204 205 204 205 207 209 211 213 214 207 204 205 206 206 209
96 111 128 133 135 142 154 159 162 171 177 180 182 183 184 176 177 181 188 187 191 192 193 195 192 194 196 194 189 191 192 196 197 199 201 198 200 198 199 200 200 199 199 199 197 197 196 201 205 206 205 206 209 211 212 214 212 205 203 204 205 207 210
90 98 99 106 113 123 134 142 146 153 167 177 181 181 183 175 173 182 186 188 191 188 194 200 198 194 196 194 190 190 190 191 194 198 199 200 201 199 198 199 200 200 199 201 199 195 198 202 203 206 206 206 209 213 213 217 210 205 202 202 203 207 210
53 86 100 91 100 122 132 128 133 145 153 158 157 155 156 171 173 179 183 187 188 190 194 198 204 195 194 194 193 189 188 189 192 195 198 198 199 199 200 199 201 202 202 201 197 199 202 204 205 207 208 209 210 213 216 217 210 203 202 201 202 205 207
58 51 53 72 70 68 82 85 78 66 53 68 84 164 163 166 170 168 180 176 184 194 193 196 201 200 187 194 194 189 189 189 191 194 194 194 194 197 200 201 203 204 203 200 200 202 204 204 206 209 210 211 212 213 218 220 209 200 200 200 200 204 204
59 69 62 52 54 43 44 54 63 57 53 45 43 43 104 203 187 173 191 189 181 187 196 195 198 201 187 191 192 191 189 189 192 193 192 191 192 195 198 199 201 203 202 204 207 210 210 212 212 213 214 215 215 217 222 222 207 199 197 198 199 200 205
60 68 68 57 50 46 38 34 41 39 43 47 33 20 25 14 346 224 208 194 199 189 188 194 200 202 191 188 191 191 189 189 190 191 191 190 191 196 197 197 199 200 196 205 210 209 211 213 214 215 215 216 217 221 226 225 207 196 194 195 195 193 208
46 59 61 58 48 36 28 21 22 17 28 26 22 14 3 12 36 53 9 283 216 195 199 195 204 201 190 188 189 189 187 188 188 189 190 190 194 195 195 195 196 198 193 201 205 213 214 214 218 219 220 218 221 221 227 229 208 191 193 192 191 192 202
34 33 55 54 46 49 28 19 26 31 50 33 16 352 348 357 28 27 329 274 258 222 208 204 200 189 190 188 184 185 184 186 188 189 189 192 194 191 190 191 192 192 190 200 204 212 212 213 218 221 223 224 224 223 226 231 218 191 187 191 191 193 205
33 23 28 32 41 42 41 40 29 26 39 27 353 342 350 353 352 352 357 320 289 236 226 223 203 188 183 176 177 181 183 184 186 188 189 190 188 188 189 184 185 189 192 197 201 204 210 213 216 219 222 222 225 225 222 226 225 199 183 184 190 193 201
27 20 17 12 38 30 23 34 32 19 17 8 6 6 358 351 347 335 318 310 329 295 264 229 206 191 181 176 173 177 182 181 182 184 186 184 183 182 182 183 184 183 188 196 200 205 210 215 217 221 224 220 223 227 224 221 220 210 179 184 185 193 198
29 14 6 12 35 37 17 33 28 8 2 23 17 1 352 350 338 323 312 309 314 289 285 272 193 185 179 175 175 175 177 179 178 179 177 176 173 178 182 180 178 183 188 192 198 203 209 212 220 225 229 225 222 223 225 222 213 216 188 181 187 192 198
17 13 7 3 18 18 3 31 39 352 9 24 21 344 343 339 330 310 298 358 340 324 338 328 209 183 179 174 171 170 173 173 169 170 169 170 171 172 176 174 180 186 187 193 198 202 207 209 212 222 229 233 230 223 219 216 214 208 199 186 189 195 199
17 5 2 2 14 7 0 356 5 27 18 3 348 337 336 338 319 328 29 8 325 338 352 357 337 169 173 174 166 164 166 165 164 163 163 163 165 170 171 176 181 184 188 191 195 198 207 208 210 217 225 231 234 229 223 210 217 211 210 193 195 197 200
18 2 349 342 11 3 349 349 346 35 2 13 1 350 320 328 351 345 356 333 336 353 358 351 356 121 157 162 157 155 158 157 157 161 159 162 162 168 173 179 178 186 187 188 194 198 203 204 203 210 216 221 226 230 226 213 202 202 206 196 197 203 204
8 360 347 339 358 357 346 348 347 15 11 5 351 345 333 334 344 342 309 317 340 346 352 3 3 69 130 142 150 144 148 152 155 158 160 160 164 168 174 177 182 187 186 187 194 199 200 202 198 204 206 207 217 213 220 221 225 190 58 43 98 245 272
353 345 335 330 344 353 352 353 351 3 23 14 332 328 325 333 336 337 339 344 332 341 352 1 5 35 92 109 116 124 131 146 155 156 158 161 159 163 168 174 178 182 182 184 192 194 198 195 190 194 192 206 206 209 204 214 163 64 52 40 67 139 177
339 334 325 320 304 346 353 350 339 17 11 336 313 321 317 320 319 316 317 325 336 338 353 343 358 23 70 101 106 111 116 122 152 150 157 158 158 152 152 163 172 173 176 187 184 185 194 189 191 187 189 197 194 190 199 128 61 35 42 38 31 49 130
331 323 315 313 306 268 322 330 326 359 324 332 322 323 323 301 296 312 338 328 311 323 304 312 352 16 56 76 107 109 108 112 130 151 149 145 144 138 122 174 177 160 95 33 326 199 178 187 169 174 127 85 58 117 99 68 75 94 264 356 307 93 94
320 317 314 311 308 264 336 295 358 1 334 320 327 313 299 304 310 318 9 11 10 5 3 3 3 9 39 35 68 125 133 128 134 142 151 147 138 107 67 45 37 29 103 96 49 66 67 89 101 94 102 90 37 15 112 126 143 148 141 177 127 89 113
310 314 308 315 331 328 145 6 320 319 321 336 337 336 334 326 335 20 10 35 28 19 13 358 8 83 66 61 55 73 82 76 95 84 84 120 127 102 95 74 45 40 37 61 81 80 78 77 79 75 83 108 110 49 72 104 118 140 158 122 92 71 49
314 300 307 317 320 336 335 18 343 29 12 18 21 15 12 19 15 1 6 35 36 29 23 12 42 74 65 72 71 65 71 73 79 89 95 87 106 116 113 102 98 54 35 33 55 72 77 78 75 75 76 90 112 127 101 121 141 150 153 155 147 142 126